Location: Holbach
(51.5399°N, 10.6036°E)
Time: 10:23:07
(UTC+00:00)

ATLAS CENTAUR R/B - Pass Details

Date: 18 January 2021
Orbit: 471 x 674 km, 64.6° (Epoch: 24 February)

Event Time Altitude Azimuth Distance (km) Brightness Sun altitude
Rises 05:45:31 0° 169° (S) 2,530 5.1 -13.3°
Reaches altitude 10° 05:48:42 10° 139° (SE) 1,639 4.7 -12.8°
Maximum altitude 05:50:15 12° 113° (ESE) 1,495 4.9 -12.6°
Drops below altitude 10° 05:51:48 10° 88° (E) 1,638 5.0 -12.3°
Sets 05:54:59 0° 58° (ENE) 2,527 5.3 -11.9°
